SBI6201 UHWW-UHSS

Flight info

Callsign SBI6201
Flight time 1h 31m
Altitude 37000
Route UHWW DOLMA B356 LUBOK W209 RUNUK R810 TIMIT B919 KENOM UHSS
Aircraft B738/M-SDE2E3FGHIRWXY/LB1

Departure

Time 2026-04-28 15:11
Airport Vladivostok International Airport (UHWW)

Arrival

Time 2026-04-28 16:42
Airport Yuzhno-Sakhalinsk International Airport (UHSS)
Time Latitude Longitude Altitude Speed Heading
2026-04-28 14:28 43.39850 132.16347 54 ft 0 kts 151°
2026-04-28 14:56 43.39848 132.16348 53 ft 0 kts 151°
2026-04-28 14:56 43.39841 132.16354 53 ft 2 kts 150°
2026-04-28 14:57 43.39819 132.16371 53 ft 4 kts 153°
2026-04-28 14:57 43.39796 132.16371 53 ft 5 kts 205°
2026-04-28 14:57 43.39755 132.16292 53 ft 9 kts 241°
2026-04-28 14:57 43.39764 132.16205 53 ft 11 kts 320°
2026-04-28 14:58 43.39835 132.16150 53 ft 11 kts 331°
2026-04-28 14:58 43.39878 132.16116 53 ft 4 kts 321°
2026-04-28 14:58 43.39892 132.16075 53 ft 5 kts 271°
2026-04-28 14:58 43.39876 132.16014 53 ft 7 kts 242°
2026-04-28 14:59 43.39851 132.15951 53 ft 6 kts 241°
2026-04-28 14:59 43.39831 132.15903 53 ft 5 kts 241°
2026-04-28 14:59 43.39817 132.15866 53 ft 3 kts 241°
2026-04-28 14:59 43.39806 132.15840 53 ft 2 kts 241°
2026-04-28 15:00 43.39796 132.15814 53 ft 3 kts 241°
2026-04-28 15:00 43.39784 132.15784 53 ft 3 kts 241°
2026-04-28 15:00 43.39771 132.15750 53 ft 4 kts 241°
2026-04-28 15:00 43.39756 132.15715 53 ft 4 kts 241°
2026-04-28 15:01 43.39739 132.15672 53 ft 6 kts 240°
2026-04-28 15:01 43.39714 132.15611 53 ft 8 kts 241°
2026-04-28 15:01 43.39681 132.15529 53 ft 11 kts 241°
2026-04-28 15:01 43.39640 132.15428 53 ft 13 kts 241°
2026-04-28 15:02 43.39591 132.15308 53 ft 15 kts 240°
2026-04-28 15:02 43.39536 132.15170 53 ft 16 kts 240°
2026-04-28 15:02 43.39482 132.15037 53 ft 15 kts 240°
2026-04-28 15:02 43.39433 132.14914 53 ft 14 kts 241°
2026-04-28 15:03 43.39387 132.14801 53 ft 13 kts 240°
2026-04-28 15:03 43.39344 132.14694 53 ft 12 kts 241°
2026-04-28 15:03 43.39304 132.14595 53 ft 11 kts 240°
2026-04-28 15:03 43.39267 132.14504 53 ft 10 kts 241°
2026-04-28 15:04 43.39232 132.14418 53 ft 10 kts 241°
2026-04-28 15:04 43.39200 132.14327 53 ft 11 kts 264°
2026-04-28 15:04 43.39246 132.14252 53 ft 7 kts 331°
2026-04-28 15:04 43.39256 132.14244 53 ft 0 kts 332°
2026-04-28 15:05 43.39261 132.14241 53 ft 1 kts 332°
2026-04-28 15:06 43.39283 132.14223 53 ft 6 kts 331°
2026-04-28 15:06 43.39329 132.14189 53 ft 7 kts 336°
2026-04-28 15:06 43.39379 132.14200 53 ft 7 kts 34°
2026-04-28 15:06 43.39410 132.14259 53 ft 4 kts 61°
2026-04-28 15:07 43.39411 132.14259 53 ft 0 kts 61°
2026-04-28 15:10 43.39424 132.14293 53 ft 10 kts 61°
2026-04-28 15:10 43.39583 132.14687 53 ft 82 kts 60°
2026-04-28 15:10 43.39969 132.15643 54 ft 143 kts 60°
2026-04-28 15:11 43.40501 132.16980 323 ft 168 kts 60°
2026-04-28 15:11 43.41076 132.18442 851 ft 179 kts 60°
2026-04-28 15:11 43.41663 132.19919 1568 ft 178 kts 58°
2026-04-28 15:11 43.42296 132.21460 1995 ft 195 kts 59°
2026-04-28 15:12 43.42988 132.23198 2300 ft 222 kts 59°
2026-04-28 15:12 43.43755 132.25113 2982 ft 234 kts 59°
2026-04-28 15:12 43.44561 132.27124 3459 ft 250 kts 59°
2026-04-28 15:12 43.45412 132.29246 4101 ft 257 kts 59°
2026-04-28 15:13 43.46274 132.31393 4771 ft 262 kts 58°
2026-04-28 15:13 43.47166 132.33612 5458 ft 266 kts 58°
2026-04-28 15:13 43.48054 132.35818 6139 ft 270 kts 58°
2026-04-28 15:13 43.49090 132.37967 6797 ft 271 kts 42°
2026-04-28 15:14 43.50625 132.39395 7539 ft 268 kts 24°
2026-04-28 15:14 43.52262 132.40570 8194 ft 273 kts 26°
2026-04-28 15:14 43.53933 132.41887 8899 ft 277 kts 26°
2026-04-28 15:14 43.55613 132.43218 9591 ft 281 kts 26°
2026-04-28 15:15 43.57301 132.44551 10244 ft 287 kts 26°
2026-04-28 15:15 43.58485 132.45488 10377 ft 303 kts 26°
2026-04-28 15:15 43.61046 132.47522 10666 ft 331 kts 26°
2026-04-28 15:15 43.63066 132.49133 11106 ft 342 kts 26°
2026-04-28 15:16 43.65167 132.50813 11717 ft 349 kts 26°
2026-04-28 15:16 43.67268 132.52490 12362 ft 354 kts 26°
2026-04-28 15:16 43.69396 132.54193 13079 ft 357 kts 26°
2026-04-28 15:16 43.71565 132.55928 13799 ft 359 kts 26°
2026-04-28 15:17 43.73717 132.57652 14489 ft 363 kts 26°
2026-04-28 15:17 43.75915 132.59413 15178 ft 366 kts 25°
2026-04-28 15:17 43.78108 132.61174 15830 ft 371 kts 26°
2026-04-28 15:17 43.80287 132.63133 16458 ft 377 kts 31°
2026-04-28 15:18 43.82340 132.65437 17072 ft 384 kts 37°
2026-04-28 15:18 43.84345 132.67883 17649 ft 388 kts 37°
2026-04-28 15:18 43.86383 132.70348 18210 ft 392 kts 36°
2026-04-28 15:18 43.88456 132.72852 18762 ft 397 kts 37°
2026-04-28 15:19 43.90511 132.75360 19300 ft 400 kts 37°
2026-04-28 15:19 43.92625 132.77963 19836 ft 404 kts 37°
2026-04-28 15:19 43.94738 132.80568 20329 ft 409 kts 37°
2026-04-28 15:19 43.96867 132.83195 20836 ft 412 kts 37°
2026-04-28 15:20 43.98994 132.85825 21303 ft 416 kts 37°
2026-04-28 15:20 44.01168 132.88516 21778 ft 419 kts 37°
2026-04-28 15:20 44.03341 132.91209 22219 ft 423 kts 37°
2026-04-28 15:20 44.05555 132.93957 22657 ft 427 kts 36°
2026-04-28 15:21 44.07767 132.96707 23095 ft 430 kts 36°
2026-04-28 15:21 44.09998 132.99481 23480 ft 434 kts 36°
2026-04-28 15:21 44.12248 133.02284 23878 ft 438 kts 37°
2026-04-28 15:21 44.14509 133.05103 24254 ft 442 kts 37°
2026-04-28 15:22 44.16793 133.07956 24640 ft 445 kts 37°
2026-04-28 15:22 44.19132 133.10877 25032 ft 448 kts 37°
2026-04-28 15:22 44.21507 133.13658 25372 ft 449 kts 32°
2026-04-28 15:22 44.24015 133.16222 25744 ft 450 kts 30°
2026-04-28 15:23 44.26563 133.18762 26063 ft 454 kts 30°
2026-04-28 15:23 44.29097 133.21353 26428 ft 456 kts 31°
2026-04-28 15:23 44.31666 133.24013 26758 ft 459 kts 31°
2026-04-28 15:23 44.34207 133.26639 27068 ft 462 kts 31°
2026-04-28 15:24 44.36777 133.29289 27381 ft 465 kts 31°
2026-04-28 15:25 44.37558 133.30096 27469 ft 466 kts 31°
2026-04-28 15:25 44.40167 133.32794 27791 ft 468 kts 31°
2026-04-28 15:25 44.42778 133.35498 28094 ft 471 kts 31°
2026-04-28 15:26 44.45381 133.38199 28373 ft 474 kts 31°
2026-04-28 15:26 44.48038 133.40959 28662 ft 476 kts 31°
2026-04-28 15:26 44.50687 133.43713 28933 ft 478 kts 31°
2026-04-28 15:26 44.53372 133.46507 29174 ft 481 kts 31°
2026-04-28 15:27 44.56068 133.49318 29477 ft 483 kts 31°
2026-04-28 15:27 44.58761 133.52130 29740 ft 485 kts 31°
2026-04-28 15:27 44.61433 133.54923 30036 ft 486 kts 31°
2026-04-28 15:27 44.64148 133.57762 30277 ft 488 kts 31°
2026-04-28 15:28 44.66846 133.60591 30714 ft 485 kts 31°
2026-04-28 15:28 44.69556 133.63435 31031 ft 485 kts 30°
2026-04-28 15:28 44.72256 133.66269 31315 ft 486 kts 31°
2026-04-28 15:28 44.74974 133.69125 31665 ft 485 kts 31°
2026-04-28 15:29 44.77660 133.71956 32032 ft 483 kts 31°
2026-04-28 15:29 44.80342 133.74791 32290 ft 484 kts 31°
2026-04-28 15:29 44.82996 133.77614 32528 ft 485 kts 31°
2026-04-28 15:29 44.85706 133.80490 32847 ft 484 kts 31°
2026-04-28 15:30 44.88342 133.83371 33135 ft 486 kts 34°
2026-04-28 15:30 44.90833 133.86655 33385 ft 493 kts 43°
2026-04-28 15:30 44.92848 133.90607 33567 ft 504 kts 58°
2026-04-28 15:30 44.94316 133.95073 33828 ft 506 kts 64°
2026-04-28 15:31 44.95705 133.99672 34160 ft 504 kts 62°
2026-04-28 15:31 44.97182 134.04141 34434 ft 503 kts 60°
2026-04-28 15:31 44.98701 134.08551 34725 ft 501 kts 60°
2026-04-28 15:31 45.00200 134.12972 35045 ft 500 kts 61°
2026-04-28 15:32 45.01673 134.17401 35326 ft 499 kts 62°
2026-04-28 15:32 45.02654 134.20384 35497 ft 499 kts 62°
2026-04-28 15:32 45.04567 134.26297 35877 ft 497 kts 62°
2026-04-28 15:32 45.05982 134.30721 36212 ft 494 kts 63°
2026-04-28 15:33 45.07388 134.35123 36479 ft 493 kts 63°
2026-04-28 15:33 45.08796 134.39517 36691 ft 493 kts 62°
2026-04-28 15:33 45.10199 134.43895 36944 ft 491 kts 63°
2026-04-28 15:34 45.13068 134.52710 37019 ft 493 kts 62°
2026-04-28 15:34 45.15916 134.61511 37021 ft 490 kts 63°
2026-04-28 15:35 45.18680 134.70329 37007 ft 490 kts 64°
2026-04-28 15:35 45.22861 134.83580 36940 ft 491 kts 63°
2026-04-28 15:36 45.25670 134.92383 36882 ft 490 kts 63°
2026-04-28 15:36 45.28443 135.01199 36859 ft 491 kts 64°
2026-04-28 15:37 45.31196 135.10057 36858 ft 492 kts 64°
2026-04-28 15:37 45.33490 135.17444 36858 ft 491 kts 64°
2026-04-28 15:38 45.36689 135.27786 36858 ft 491 kts 64°
2026-04-28 15:38 45.39463 135.36642 36858 ft 490 kts 64°
2026-04-28 15:39 45.42235 135.45508 36858 ft 492 kts 64°
2026-04-28 15:39 45.45011 135.54431 36857 ft 492 kts 64°
2026-04-28 15:40 45.47736 135.63290 36858 ft 491 kts 64°
2026-04-28 15:40 45.50468 135.72183 36857 ft 491 kts 65°
2026-04-28 15:41 45.53202 135.81090 36858 ft 491 kts 65°
2026-04-28 15:41 45.55939 135.90073 36857 ft 492 kts 65°
2026-04-28 15:42 45.58632 135.98984 36858 ft 491 kts 65°
2026-04-28 15:42 45.61317 136.07907 36857 ft 492 kts 65°
2026-04-28 15:43 45.64032 136.16902 36858 ft 492 kts 65°
2026-04-28 15:43 45.66706 136.25880 36858 ft 491 kts 65°
2026-04-28 15:44 45.69329 136.34816 36857 ft 492 kts 65°
2026-04-28 15:44 45.72018 136.43800 36858 ft 492 kts 65°
2026-04-28 15:45 45.74707 136.52817 36857 ft 491 kts 65°
2026-04-28 15:45 45.77337 136.61833 36858 ft 491 kts 65°
2026-04-28 15:46 45.79953 136.70811 36858 ft 491 kts 66°
2026-04-28 15:46 45.82577 136.79813 36859 ft 492 kts 65°
2026-04-28 15:47 45.85223 136.88879 36858 ft 491 kts 66°
2026-04-28 15:47 45.87844 136.97911 36858 ft 490 kts 66°
2026-04-28 15:48 45.90468 137.06946 36858 ft 491 kts 66°
2026-04-28 15:48 45.93105 137.15932 36857 ft 489 kts 66°
2026-04-28 15:49 45.95703 137.24956 36858 ft 490 kts 66°
2026-04-28 15:49 45.98271 137.33984 36858 ft 491 kts 66°
2026-04-28 15:50 46.00877 137.42963 36857 ft 490 kts 66°
2026-04-28 15:50 46.03486 137.52026 36857 ft 490 kts 66°
2026-04-28 15:51 46.06036 137.61107 36858 ft 491 kts 66°
2026-04-28 15:51 46.08582 137.70163 36858 ft 491 kts 67°
2026-04-28 15:52 46.11111 137.79198 36857 ft 491 kts 67°
2026-04-28 15:52 46.13662 137.88312 36857 ft 490 kts 67°
2026-04-28 15:53 46.16239 137.97380 36858 ft 491 kts 66°
2026-04-28 15:53 46.18802 138.06442 36858 ft 491 kts 67°
2026-04-28 15:54 46.21336 138.15535 36857 ft 490 kts 67°
2026-04-28 15:54 46.23841 138.24625 36857 ft 491 kts 67°
2026-04-28 15:55 46.26311 138.33752 36858 ft 491 kts 67°
2026-04-28 15:55 46.28798 138.42928 36857 ft 490 kts 67°
2026-04-28 15:56 46.31257 138.51993 36873 ft 490 kts 67°
2026-04-28 15:56 46.33752 138.61142 36924 ft 491 kts 67°
2026-04-28 15:57 46.36262 138.70242 36974 ft 491 kts 68°
2026-04-28 15:57 46.38745 138.79344 36993 ft 491 kts 68°
2026-04-28 15:58 46.41092 138.88084 36993 ft 491 kts 68°
2026-04-28 15:58 46.43534 138.97310 36992 ft 490 kts 68°
2026-04-28 15:59 46.45552 139.04938 36992 ft 490 kts 68°
2026-04-28 15:59 46.48423 139.15646 36993 ft 491 kts 68°
2026-04-28 16:00 46.50872 139.24850 36993 ft 493 kts 68°
2026-04-28 16:00 46.53300 139.34105 36993 ft 492 kts 68°
2026-04-28 16:01 46.55700 139.43346 36992 ft 491 kts 68°
2026-04-28 16:01 46.58091 139.52480 36992 ft 492 kts 68°
2026-04-28 16:02 46.60530 139.61685 36720 ft 495 kts 68°
2026-04-28 16:02 46.61680 139.66046 36483 ft 494 kts 69°
2026-04-28 16:02 46.62944 139.70845 36223 ft 490 kts 69°
2026-04-28 16:03 46.64161 139.75488 35971 ft 488 kts 69°
2026-04-28 16:03 46.65346 139.80064 35724 ft 488 kts 69°
2026-04-28 16:03 46.66530 139.84694 35476 ft 490 kts 69°
2026-04-28 16:03 46.67722 139.89388 35225 ft 490 kts 69°
2026-04-28 16:04 46.68888 139.93996 34979 ft 491 kts 69°
2026-04-28 16:04 46.70069 139.98653 34728 ft 492 kts 69°
2026-04-28 16:04 46.71252 140.03302 34478 ft 493 kts 69°
2026-04-28 16:04 46.72044 140.06422 34311 ft 493 kts 70°
2026-04-28 16:05 46.73430 140.12732 33977 ft 493 kts 76°
2026-04-28 16:05 46.74076 140.17596 33727 ft 492 kts 83°
2026-04-28 16:05 46.74411 140.22459 33485 ft 492 kts 86°
2026-04-28 16:05 46.74701 140.27368 33236 ft 492 kts 85°
2026-04-28 16:06 46.75026 140.32285 32987 ft 491 kts 85°
2026-04-28 16:06 46.75369 140.37204 32734 ft 488 kts 85°
2026-04-28 16:06 46.75714 140.42122 32481 ft 485 kts 85°
2026-04-28 16:06 46.76040 140.46869 32028 ft 480 kts 85°
2026-04-28 16:07 46.76360 140.51648 31379 ft 477 kts 85°
2026-04-28 16:07 46.76674 140.56384 30515 ft 479 kts 85°
2026-04-28 16:07 46.77302 140.65981 28785 ft 482 kts 85°
2026-04-28 16:08 46.77609 140.70712 27931 ft 481 kts 85°
2026-04-28 16:08 46.77929 140.75548 27054 ft 481 kts 85°
2026-04-28 16:08 46.78243 140.80219 26206 ft 479 kts 85°
2026-04-28 16:09 46.78852 140.89491 24514 ft 475 kts 85°
2026-04-28 16:09 46.79147 140.94133 23660 ft 472 kts 85°
2026-04-28 16:09 46.79435 140.98700 22815 ft 469 kts 85°
2026-04-28 16:10 46.80021 141.08145 21050 ft 462 kts 85°
2026-04-28 16:10 46.80306 141.12808 20167 ft 458 kts 85°
2026-04-28 16:10 46.80860 141.21977 18409 ft 449 kts 85°
2026-04-28 16:11 46.81391 141.30902 16665 ft 440 kts 85°
2026-04-28 16:11 46.81883 141.39296 15105 ft 428 kts 85°
2026-04-28 16:12 46.82352 141.47382 14585 ft 392 kts 85°
2026-04-28 16:12 46.82576 141.51291 14332 ft 376 kts 85°
2026-04-28 16:13 46.82989 141.58571 14002 ft 344 kts 85°
2026-04-28 16:13 46.83168 141.61754 13997 ft 337 kts 85°
2026-04-28 16:13 46.83532 141.68278 13993 ft 342 kts 86°
2026-04-28 16:14 46.83910 141.75102 13993 ft 342 kts 86°
2026-04-28 16:14 46.85087 141.81790 13993 ft 341 kts 61°
2026-04-28 16:15 46.87552 141.87077 13729 ft 342 kts 53°
2026-04-28 16:15 46.88873 141.89783 13486 ft 338 kts 53°
2026-04-28 16:15 46.90083 141.92284 13261 ft 335 kts 53°
2026-04-28 16:16 46.92842 141.97943 12749 ft 331 kts 53°
2026-04-28 16:16 46.94185 142.00696 12497 ft 330 kts 53°
2026-04-28 16:17 46.96832 142.06131 11996 ft 326 kts 53°
2026-04-28 16:17 46.98152 142.08844 11744 ft 324 kts 54°
2026-04-28 16:17 46.99394 142.11397 11505 ft 322 kts 54°
2026-04-28 16:17 47.00678 142.14041 11257 ft 321 kts 54°
2026-04-28 16:18 47.01981 142.16727 11004 ft 319 kts 54°
2026-04-28 16:18 47.03047 142.18924 10791 ft 313 kts 54°
2026-04-28 16:18 47.04377 142.21668 10519 ft 303 kts 54°
2026-04-28 16:18 47.05578 142.24149 10269 ft 295 kts 54°
2026-04-28 16:19 47.06757 142.26587 10017 ft 288 kts 54°
2026-04-28 16:19 47.07881 142.28912 9770 ft 281 kts 54°
2026-04-28 16:19 47.08908 142.31041 9541 ft 277 kts 54°
2026-04-28 16:19 47.09898 142.33092 9319 ft 276 kts 54°
2026-04-28 16:20 47.10986 142.35349 9074 ft 275 kts 54°
2026-04-28 16:20 47.12024 142.37503 8837 ft 272 kts 54°
2026-04-28 16:20 47.13099 142.39735 8586 ft 266 kts 54°
2026-04-28 16:20 47.14167 142.41957 8333 ft 261 kts 55°
2026-04-28 16:21 47.15165 142.44032 8091 ft 256 kts 55°
2026-04-28 16:21 47.16124 142.46030 8003 ft 246 kts 55°
2026-04-28 16:21 47.16999 142.47855 7995 ft 247 kts 55°
2026-04-28 16:21 47.17945 142.49826 7993 ft 248 kts 55°
2026-04-28 16:22 47.18920 142.51862 7993 ft 248 kts 55°
2026-04-28 16:22 47.19896 142.53899 7993 ft 248 kts 55°
2026-04-28 16:22 47.20817 142.55823 7993 ft 248 kts 55°
2026-04-28 16:22 47.21756 142.57787 7993 ft 248 kts 55°
2026-04-28 16:23 47.22627 142.59610 7993 ft 248 kts 55°
2026-04-28 16:23 47.23579 142.61603 7993 ft 248 kts 55°
2026-04-28 16:23 47.24408 142.63530 7989 ft 248 kts 65°
2026-04-28 16:23 47.24819 142.65810 7995 ft 246 kts 89°
2026-04-28 16:24 47.24618 142.68108 7994 ft 244 kts 111°
2026-04-28 16:24 47.23880 142.70165 7971 ft 242 kts 131°
2026-04-28 16:24 47.22610 142.71756 7719 ft 240 kts 155°
2026-04-28 16:24 47.21142 142.72443 7485 ft 234 kts 174°
2026-04-28 16:25 47.19516 142.72494 7240 ft 232 kts 183°
2026-04-28 16:25 47.18084 142.72447 7018 ft 232 kts 181°
2026-04-28 16:25 47.16464 142.72427 6765 ft 231 kts 181°
2026-04-28 16:25 47.14996 142.72395 6536 ft 230 kts 181°
2026-04-28 16:26 47.13581 142.72362 6314 ft 229 kts 181°
2026-04-28 16:26 47.10499 142.72287 5827 ft 228 kts 181°
2026-04-28 16:26 47.09015 142.72250 5592 ft 227 kts 181°
2026-04-28 16:27 47.07484 142.72212 5349 ft 226 kts 181°
2026-04-28 16:27 47.05990 142.72174 5110 ft 226 kts 181°
2026-04-28 16:27 47.03151 142.72104 5001 ft 207 kts 181°
2026-04-28 16:28 47.01854 142.72072 4983 ft 193 kts 181°
2026-04-28 16:28 47.01009 142.72051 4995 ft 191 kts 181°
2026-04-28 16:28 46.99331 142.72008 4993 ft 193 kts 181°
2026-04-28 16:28 46.97891 142.71973 4993 ft 193 kts 181°
2026-04-28 16:29 46.95192 142.71905 4993 ft 193 kts 181°
2026-04-28 16:29 46.92613 142.71696 4914 ft 196 kts 199°
2026-04-28 16:30 46.91644 142.70638 4671 ft 195 kts 237°
2026-04-28 16:30 46.91193 142.68898 4463 ft 195 kts 255°
2026-04-28 16:30 46.91118 142.66986 4200 ft 198 kts 282°
2026-04-28 16:30 46.91799 142.65330 4001 ft 198 kts 318°
2026-04-28 16:31 46.92742 142.64165 4003 ft 201 kts 316°
2026-04-28 16:31 46.93833 142.62886 3986 ft 201 kts 333°
2026-04-28 16:31 46.95032 142.62581 4012 ft 201 kts
2026-04-28 16:31 46.96331 142.62736 3982 ft 203 kts
2026-04-28 16:32 46.97698 142.62758 3983 ft 203 kts
2026-04-28 16:32 47.00404 142.62820 3994 ft 201 kts
2026-04-28 16:32 47.01717 142.62851 3993 ft 201 kts
2026-04-28 16:33 47.03022 142.62882 3993 ft 201 kts
2026-04-28 16:33 47.03513 142.62894 3993 ft 201 kts
2026-04-28 16:33 47.05756 142.62946 3993 ft 201 kts
2026-04-28 16:33 47.07075 142.62976 3993 ft 201 kts
2026-04-28 16:34 47.08357 142.63007 3993 ft 201 kts
2026-04-28 16:34 47.09602 142.63036 3998 ft 195 kts
2026-04-28 16:34 47.10731 142.63065 3988 ft 184 kts
2026-04-28 16:34 47.11888 142.63577 3952 ft 179 kts 41°
2026-04-28 16:35 47.12535 142.64978 3963 ft 179 kts 70°
2026-04-28 16:35 47.12856 142.66744 3674 ft 180 kts 92°
2026-04-28 16:35 47.12576 142.68480 3375 ft 173 kts 109°
2026-04-28 16:35 47.12422 142.70213 3069 ft 172 kts 92°
2026-04-28 16:36 47.12154 142.71849 3010 ft 166 kts 130°
2026-04-28 16:36 47.11200 142.72603 3000 ft 160 kts 179°
2026-04-28 16:36 47.10102 142.72395 3011 ft 160 kts 186°
2026-04-28 16:36 47.09007 142.72287 3006 ft 159 kts 182°
2026-04-28 16:37 47.07885 142.72231 3005 ft 159 kts 181°
2026-04-28 16:37 47.06799 142.72195 3003 ft 158 kts 181°
2026-04-28 16:37 47.05682 142.72165 2999 ft 159 kts 181°
2026-04-28 16:38 47.03632 142.72115 2687 ft 139 kts 181°
2026-04-28 16:38 47.02687 142.72092 2602 ft 140 kts 181°
2026-04-28 16:38 47.01704 142.72067 2360 ft 142 kts 181°
2026-04-28 16:38 47.00740 142.72043 2209 ft 141 kts 181°
2026-04-28 16:39 46.99753 142.72018 1965 ft 141 kts 181°
2026-04-28 16:39 46.98787 142.71994 1781 ft 139 kts 181°
2026-04-28 16:39 46.97829 142.71971 1591 ft 139 kts 181°
2026-04-28 16:39 46.96878 142.71948 1406 ft 139 kts 181°
2026-04-28 16:40 46.95913 142.71924 1218 ft 139 kts 181°
2026-04-28 16:40 46.94951 142.71899 1031 ft 139 kts 181°
2026-04-28 16:40 46.93993 142.71876 845 ft 138 kts 181°
2026-04-28 16:40 46.93018 142.71852 657 ft 138 kts 181°
2026-04-28 16:41 46.92068 142.71829 474 ft 138 kts 181°
2026-04-28 16:41 46.91116 142.71803 298 ft 137 kts 181°
2026-04-28 16:41 46.90157 142.71767 126 ft 136 kts 180°
2026-04-28 16:41 46.89253 142.71745 54 ft 118 kts 181°
2026-04-28 16:42 46.88612 142.71733 55 ft 65 kts 181°
2026-04-28 16:42 46.88316 142.71725 54 ft 28 kts 181°
2026-04-28 16:42 46.88129 142.71722 53 ft 25 kts 181°
2026-04-28 16:42 46.87991 142.71719 53 ft 11 kts 181°
2026-04-28 16:43 46.87936 142.71755 54 ft 7 kts 107°
2026-04-28 16:43 46.87942 142.71815 55 ft 5 kts 72°
2026-04-28 16:43 46.87957 142.71874 56 ft 8 kts 70°
2026-04-28 16:43 46.87983 142.71973 58 ft 12 kts 69°
2026-04-28 16:44 46.88009 142.72063 61 ft 6 kts 55°
2026-04-28 16:44 46.88043 142.72090 63 ft 6 kts 10°
2026-04-28 16:44 46.88121 142.72095 64 ft 13 kts
2026-04-28 16:44 46.88211 142.72096 64 ft 13 kts
2026-04-28 16:45 46.88301 142.72099 64 ft 10 kts
2026-04-28 16:45 46.88374 142.72101 64 ft 11 kts
2026-04-28 16:45 46.88454 142.72102 64 ft 12 kts
2026-04-28 16:45 46.88543 142.72105 64 ft 13 kts
2026-04-28 16:46 46.88617 142.72107 64 ft 9 kts
2026-04-28 16:46 46.88684 142.72108 64 ft 10 kts
2026-04-28 16:46 46.88717 142.72110 64 ft 0 kts
2026-04-28 16:46 46.88720 142.72113 64 ft 1 kts 31°
2026-04-28 16:47 46.88725 142.72122 64 ft 1 kts 65°
2026-04-28 16:47 46.88726 142.72131 64 ft 0 kts 89°
2026-04-28 16:47 46.88726 142.72147 65 ft 3 kts 90°
2026-04-28 16:47 46.88726 142.72177 65 ft 0 kts 90°
2026-04-28 16:48 46.88726 142.72179 66 ft 1 kts 90°
2026-04-28 16:48 46.88726 142.72205 67 ft 3 kts 90°
2026-04-28 16:48 46.88726 142.72221 67 ft 0 kts 90°